Clinton, IA

10:37 PM CDT on April 27, 2017 (GMT -0500)
Clinton Municipal

Weather History for KCWI - January, 2013

Change the Weather History Date:

Tuesday, January 29, 2013

  Actual Average Record
Temperature  
Mean Temperature 48 °F -  
Max Temperature 60 °F 29 °F 60 °F (2013)
Min Temperature 35 °F 11 °F -22 °F (1966)
Degree Days  
Heating Degree Days 18    
Moisture  
Dew Point 46 °F    
Average Humidity 88    
Maximum Humidity 94    
Minimum Humidity 77    
Precipitation  
Precipitation 0.70 in - - ()
Sea Level Pressure  
Sea Level Pressure 29.57 in    
Wind  
Wind Speed 13 mph (WSW)    
Max Wind Speed 21 mph    
Max Gust Speed 30 mph    
Visibility 6 miles    
Events Thunderstorm    
Averages and records for this station are not official NWS values.
T = Trace of Precipitation, MM = Missing Value Source: NWS Daily Summary

Daily Weather History Graph

Daily Weather History Graph

Search for Another Location

Airport or City:

Trip Planner

Search our weather history database for the weather conditions in past years. The results will help you decide how hot, cold, wet, or windy it might be!

Date:

Astronomy

Jan. 29, 2013 Rise Set
Actual Time 7:16 AM CST 5:13 PM CST
Civil Twilight 6:46 AM CST 5:42 PM CST
Nautical Twilight 6:13 AM CST 6:16 PM CST
Astronomical Twilight 5:40 AM CST 6:49 PM CST
Moon 8:13 PM CST (1/29) 8:10 AM CST (1/29)
Length of Visible Light 10h 56m
Length of Day
9h 56m
Waning Gibbous, 93% of the Moon is Illuminated
Jan 29
Waning Gibbous
Feb 3
Last Quarter
Feb 10
New
Feb 17
First Quarter
Feb 25
Full

Hourly Weather History & Observations

Time (CST) Temp. Windchill Dew Point Humidity Pressure Visibility Wind Dir Wind Speed Gust Speed Precip Events Conditions
12:15 AM 46.4 °F 41.5 °F 42.8 °F 87% 29.70 in 0.2 mi SSE 10.4 mph - N/A   Overcast
12:55 AM 46.4 °F 41.9 °F 44.6 °F 93% 29.68 in 0.2 mi South 9.2 mph - N/A   Overcast
1:15 AM 46.4 °F 41.5 °F 44.6 °F 93% 29.67 in 0.8 mi South 10.4 mph - N/A   Unknown
1:35 AM 51.8 °F - 48.2 °F 88% 29.66 in 7.0 mi SSW 15.0 mph - N/A   Clear
1:55 AM 55.4 °F - 53.6 °F 94% 29.66 in 10.0 mi SSW 20.7 mph 24.2 mph N/A   Partly Cloudy
2:15 AM 55.4 °F - 53.6 °F 94% 29.65 in 10.0 mi SSW 20.7 mph 26.5 mph N/A   Partly Cloudy
2:35 AM 55.4 °F - 51.8 °F 88% 29.64 in 10.0 mi SSW 20.7 mph 29.9 mph N/A   Clear
2:55 AM 55.4 °F - 51.8 °F 88% 29.65 in 10.0 mi SSW 19.6 mph 26.5 mph N/A   Clear
3:15 AM 55.4 °F - 51.8 °F 88% 29.64 in 10.0 mi SSW 17.3 mph - N/A   Clear
3:35 AM 55.4 °F - 51.8 °F 88% 29.63 in 10.0 mi SSW 17.3 mph - N/A   Clear
3:55 AM 55.4 °F - 51.8 °F 88% 29.63 in 10.0 mi SSW 17.3 mph - N/A   Clear
4:15 AM 55.4 °F - 51.8 °F 88% 29.61 in 10.0 mi SSW 16.1 mph - N/A   Clear
4:35 AM 55.4 °F - 51.8 °F 88% 29.61 in 10.0 mi SSW 17.3 mph - N/A   Clear
4:55 AM 55.4 °F - 51.8 °F 88% 29.60 in 10.0 mi SSW 20.7 mph - N/A   Clear
5:15 AM 55.4 °F - 51.8 °F 88% 29.60 in 10.0 mi SSW 19.6 mph 26.5 mph N/A   Partly Cloudy
5:35 AM 57.2 °F - 51.8 °F 82% 29.60 in 10.0 mi SSW 19.6 mph 28.8 mph N/A Thunderstorm Scattered Clouds
5:55 AM 57.2 °F - 53.6 °F 88% 29.63 in 8.0 mi SW 19.6 mph 25.3 mph 0.06 in   Mostly Cloudy
6:15 AM 57.2 °F - 51.8 °F 82% 29.63 in 10.0 mi SSW 19.6 mph - N/A   Scattered Clouds
6:35 AM 55.4 °F - 51.8 °F 88% 29.62 in 10.0 mi SSW 18.4 mph - 0.01 in   Partly Cloudy
6:55 AM 55.4 °F - 51.8 °F 88% 29.61 in 10.0 mi SSW 13.8 mph - 0.01 in   Partly Cloudy
7:15 AM 55.4 °F - 51.8 °F 88% 29.61 in 10.0 mi SSW 15.0 mph - N/A   Clear
7:35 AM 55.4 °F - 51.8 °F 88% 29.61 in 8.0 mi SSW 13.8 mph - N/A   Clear
7:55 AM 55.4 °F - 51.8 °F 88% 29.61 in 8.0 mi SSW 15.0 mph - N/A   Clear
8:15 AM 57.2 °F - 51.8 °F 82% 29.62 in 9.0 mi SSW 16.1 mph - N/A   Scattered Clouds
8:35 AM 55.4 °F - 51.8 °F 88% 29.62 in 5.0 mi SSW 12.7 mph - 0.04 in Thunderstorm Mostly Cloudy
8:55 AM 57.2 °F - 53.6 °F 88% 29.59 in 10.0 mi SSW 11.5 mph - 0.04 in   Mostly Cloudy
9:15 AM 57.2 °F - 53.6 °F 88% 29.59 in 8.0 mi South 9.2 mph - N/A   Mostly Cloudy
9:35 AM 57.2 °F - 53.6 °F 88% 29.58 in 10.0 mi South 13.8 mph - N/A   Scattered Clouds
9:55 AM 57.2 °F - 53.6 °F 88% 29.60 in 10.0 mi SSW 13.8 mph - N/A   Mostly Cloudy
10:15 AM 59.0 °F - 53.6 °F 82% 29.60 in 10.0 mi SSW 13.8 mph - N/A   Scattered Clouds
10:35 AM 59.0 °F - 53.6 °F 82% 29.60 in 10.0 mi SSW 15.0 mph - N/A   Scattered Clouds
10:55 AM 60.8 °F - 55.4 °F 82% 29.59 in 10.0 mi SSW 18.4 mph - N/A   Mostly Cloudy
11:15 AM 60.8 °F - 55.4 °F 82% 29.58 in 10.0 mi SW 12.7 mph - N/A   Scattered Clouds
11:35 AM 60.8 °F - 53.6 °F 77% 29.58 in 10.0 mi SW 11.5 mph - N/A   Mostly Cloudy
11:55 AM 59.0 °F - 53.6 °F 82% 29.56 in 10.0 mi WSW 9.2 mph - N/A   Mostly Cloudy
12:15 PM 57.2 °F - 53.6 °F 88% 29.56 in 8.0 mi SW 10.4 mph - N/A   Mostly Cloudy
12:35 PM 57.2 °F - 53.6 °F 88% 29.57 in 7.0 mi SW 16.1 mph - N/A   Overcast
12:55 PM 57.2 °F - 53.6 °F 88% 29.58 in 5.0 mi SW 19.6 mph - 0.03 in   Overcast
1:15 PM 53.6 °F - 48.2 °F 82% 29.58 in 5.0 mi WNW 15.0 mph - 0.05 in   Overcast
1:35 PM 50.0 °F - 46.4 °F 87% 29.55 in 5.0 mi NNW 12.7 mph - 0.08 in   Mostly Cloudy
1:55 PM 50.0 °F - 46.4 °F 87% 29.54 in 5.0 mi NW 13.8 mph - 0.10 in   Overcast
2:15 PM 48.2 °F - 44.6 °F 87% 29.55 in 4.0 mi WNW 12.7 mph - 0.01 in   Overcast
2:35 PM 46.4 °F 41.5 °F 44.6 °F 93% 29.54 in 4.0 mi WNW 10.4 mph - 0.03 in   Overcast
2:55 PM 46.4 °F 42.9 °F 42.8 °F 87% 29.54 in 4.0 mi WNW 6.9 mph - 0.06 in   Overcast
3:15 PM 46.4 °F 41.9 °F 42.8 °F 87% 29.54 in 3.0 mi West 9.2 mph - 0.02 in   Overcast
3:35 PM 44.6 °F - 42.8 °F 93% 29.52 in 3.0 mi Calm Calm - 0.06 in   Mostly Cloudy
3:55 PM 44.6 °F 40.2 °F 42.8 °F 93% 29.52 in 3.0 mi NW 8.1 mph - 0.06 in   Mostly Cloudy
4:15 PM 44.6 °F 40.7 °F 41.0 °F 87% 29.52 in 3.0 mi North 6.9 mph - 0.02 in   Overcast
4:35 PM 44.6 °F 42.2 °F 39.2 °F 81% 29.52 in 3.0 mi North 4.6 mph - 0.03 in   Overcast
4:55 PM 42.8 °F 38.0 °F 39.2 °F 87% 29.52 in 4.0 mi NNW 8.1 mph - 0.05 in   Overcast
5:15 PM 42.8 °F 41.1 °F 39.2 °F 87% 29.53 in 4.0 mi NW 3.5 mph - 0.03 in   Overcast
5:35 PM 42.8 °F - 39.2 °F 87% 29.53 in 4.0 mi Calm Calm - 0.06 in   Scattered Clouds
5:55 PM 42.8 °F 39.3 °F 39.2 °F 87% 29.52 in 3.0 mi NNW 5.8 mph - 0.08 in   Scattered Clouds
6:15 PM 41.0 °F 35.8 °F 37.4 °F 87% 29.53 in 2.5 mi NW 8.1 mph - N/A   Overcast
6:35 PM 41.0 °F 35.2 °F 37.4 °F 87% 29.53 in 3.0 mi NNW 9.2 mph - 0.01 in   Overcast
6:55 PM 41.0 °F 35.8 °F 37.4 °F 87% 29.53 in 3.0 mi North 8.1 mph - 0.02 in   Overcast
7:15 PM 39.2 °F 34.2 °F 37.4 °F 93% 29.51 in 4.0 mi North 6.9 mph - N/A   Overcast
7:35 PM 39.2 °F 32.5 °F 37.4 °F 93% 29.50 in 4.0 mi North 10.4 mph - 0.01 in   Overcast
7:55 PM 39.2 °F 33.6 °F 35.6 °F 87% 29.54 in 4.0 mi NNW 8.1 mph - 0.01 in   Overcast
8:15 PM 39.2 °F 32.5 °F 35.6 °F 87% 29.50 in 5.0 mi North 10.4 mph - 0.03 in   Overcast
8:35 PM 39.2 °F 33.0 °F 35.6 °F 87% 29.49 in 5.0 mi North 9.2 mph - 0.04 in   Overcast
8:55 PM 37.4 °F 29.3 °F 35.6 °F 93% 29.52 in 6.0 mi NNW 12.7 mph - 0.05 in   Overcast
9:15 PM 37.4 °F 28.5 °F 35.6 °F 93% 29.52 in 5.0 mi NNW 15.0 mph - 0.01 in   Overcast
9:35 PM 37.4 °F 29.3 °F 33.8 °F 87% 29.51 in 5.0 mi North 12.7 mph - 0.04 in   Overcast
9:55 PM 37.4 °F 28.9 °F 33.8 °F 87% 29.47 in 5.0 mi NNE 13.8 mph - 0.05 in   Overcast
10:15 PM 37.4 °F 28.9 °F 33.8 °F 87% 29.49 in 5.0 mi North 13.8 mph - N/A   Overcast
10:35 PM 37.4 °F 30.3 °F 33.8 °F 87% 29.52 in 5.0 mi North 10.4 mph - 0.01 in   Overcast
10:55 PM 37.4 °F 29.8 °F 33.8 °F 87% 29.50 in 3.0 mi North 11.5 mph - 0.04 in   Overcast
11:15 PM 35.6 °F 27.5 °F 33.8 °F 93% 29.52 in 2.5 mi NNW 11.5 mph - 0.02 in   Overcast
11:35 PM 35.6 °F 26.6 °F 32.0 °F 87% 29.48 in 3.0 mi North 13.8 mph - 0.03 in   Overcast
11:55 PM 35.6 °F 26.6 °F 32.0 °F 87% 29.48 in 4.0 mi North 13.8 mph - 0.04 in   Overcast